DW3733 Luzzi (cosenza) IT current weather conditions

sailwx.info

Wind from 150 at 0 knots gusting 2

Air temperature 8.9° C
Dewpoint 7.7° C

Last reported at 2018-Feb-21 17:03 UTC.
Time now 2018-Feb-21 17:50 UTC

Location: N 39°27' E 016°16'.
View on Google Maps.

See reports from other nearby stations

  
Tides and Currents Weather Stations Pressure Air Temp Water Temp Dewpoint Dewpoint Depression Visibility Wind Speed Wind Dir Waves Ship Positions
date/time (UTC)wind fromknots sea level pressurealtimeterstation pressurevisibilityair tempwater tempwave heightnotes
2018-Feb-21 17:03 150 0 gusting 2 8.9
2018-Feb-21 16:53 225 0 gusting 2 8.9
2018-Feb-21 16:43 225 8.9
2018-Feb-21 16:33 225 0 gusting 2 9.4
2018-Feb-21 16:23 209 0 gusting 2 9.4
2018-Feb-21 16:13 213 0 gusting 4 9.4
2018-Feb-21 16:03 243 0 gusting 2 9.4
2018-Feb-21 15:53 225 9.4
2018-Feb-21 15:43 180 0 gusting 0 9.4
2018-Feb-21 15:33 230 9.4
2018-Feb-21 15:23 302 0 gusting 2 10.0
2018-Feb-21 15:13 270 0 gusting 2 10.0
2018-Feb-21 14:43 261 0 gusting 2 10.6
2018-Feb-21 14:33 231 0 gusting 2 10.6
2018-Feb-21 14:23 214 0 gusting 4 10.6
2018-Feb-21 14:13 225 0 gusting 5 10.0
2018-Feb-21 14:03 270 1 gusting 4 10.0
2018-Feb-21 13:53 256 1 gusting 5 9.4
2018-Feb-21 13:43 236 1 gusting 4 9.4
2018-Feb-21 13:33 135 1 gusting 2 9.4
2018-Feb-21 13:23 180 0 gusting 1 9.4
2018-Feb-21 13:13 225 0 gusting 0 10.0
2018-Feb-21 13:03 225 10.0
2018-Feb-21 12:53 202 10.0
2018-Feb-21 12:33 330 0 gusting 2 10.0
2018-Feb-21 12:23 315 0 gusting 1 10.0
2018-Feb-21 12:13 090 10.0
2018-Feb-21 12:03 090 10.0
2018-Feb-21 11:53 266 0 gusting 1 10.0
2018-Feb-21 11:43 253 10.0
2018-Feb-21 11:33 315 0 gusting 2 9.4
2018-Feb-21 11:23 225 9.4
2018-Feb-21 11:03 263 8.9
2018-Feb-21 10:53 133 0 gusting 2 8.9
2018-Feb-21 10:43 315 8.9
2018-Feb-21 10:33 225 8.9
2018-Feb-21 10:23 102 0 gusting 2 8.9
2018-Feb-21 10:13 252 8.3
2018-Feb-21 10:03 180 8.3
2018-Feb-21 09:53 189 8.3
2018-Feb-21 09:43 242 7.8
2018-Feb-21 09:23 356 7.8
2018-Feb-21 09:13 117 0 gusting 1 7.8
2018-Feb-21 09:03 231 0 gusting 2 7.8
2018-Feb-21 08:53 244 1 gusting 4 7.2
2018-Feb-21 08:43 278 0 gusting 4 7.2
2018-Feb-21 08:33 223 0 gusting 2 7.2
2018-Feb-21 08:23 230 0 gusting 1 7.2
2018-Feb-21 08:13 225 7.2
2018-Feb-21 08:03 225 6.7
2018-Feb-21 07:53 225 6.7
2018-Feb-21 07:43 258 6.7
2018-Feb-21 07:33 225 0 gusting 1 6.7
2018-Feb-21 07:23 225 0 gusting 0 6.7
2018-Feb-21 07:13 180 6.7
2018-Feb-21 07:03 263 6.7
2018-Feb-21 06:53 225 0 gusting 0 6.7
2018-Feb-21 06:43 225 6.7
2018-Feb-21 06:33 270 6.7
2018-Feb-21 06:23 225 6.7
2018-Feb-21 06:13 225 6.7
2018-Feb-21 06:03 225 6.1
2018-Feb-21 05:53 135 6.1
2018-Feb-21 05:43 225 6.1
2018-Feb-21 05:33 180 6.1
2018-Feb-21 05:23 225 6.1
2018-Feb-21 05:13 225 0 gusting 1 6.1
2018-Feb-21 05:03 203 6.1
2018-Feb-21 04:53 180 1 gusting 2 6.1
2018-Feb-21 04:43 225 1 gusting 2 6.1
2018-Feb-21 04:33 225 6.1
2018-Feb-21 04:23 045 0 gusting 2 5.6
2018-Feb-21 04:13 225 0 gusting 2 6.1
2018-Feb-21 04:03 225 5.6
2018-Feb-21 03:53 029 5.6
2018-Feb-21 03:43 180 5.6
2018-Feb-21 03:33 180 5.6
2018-Feb-21 03:23 217 5.6
2018-Feb-21 03:13 225 5.6
2018-Feb-21 03:03 225 5.6
2018-Feb-21 02:53 183 5.6
2018-Feb-21 02:43 135 5.6
2018-Feb-21 02:33 090 0 gusting 0 5.6
2018-Feb-21 02:23 220 5.6
2018-Feb-21 02:13 225 0 gusting 1 5.6
2018-Feb-21 02:03 225 5.6
2018-Feb-21 01:53 118 0 gusting 1 5.6
2018-Feb-21 01:43 135 5.6
2018-Feb-21 01:33 315 5.6
2018-Feb-21 01:23 237 5.6
2018-Feb-21 01:13 090 0 gusting 2 5.6
2018-Feb-21 01:03 135 0 gusting 1 5.6
2018-Feb-21 00:53 142 0 gusting 2 5.6
2018-Feb-21 00:43 150 1 gusting 2 6.1
2018-Feb-21 00:33 090 1 gusting 2 6.7
2018-Feb-21 00:23 225 6.7
2018-Feb-21 00:13 107 0 gusting 2 6.7
2018-Feb-21 00:03 135 1 gusting 2 6.7
2018-Feb-20 23:53 090 7.8
2018-Feb-20 23:43 225 7.2
2018-Feb-20 23:33 135 0 gusting 2 7.8
2018-Feb-20 23:23 117 1 gusting 2 8.3
2018-Feb-20 23:13 062 8.3
2018-Feb-20 23:03 210 0 gusting 2 8.3
2018-Feb-20 22:53 169 0 gusting 1 8.3
2018-Feb-20 22:43 090 0 gusting 1 8.3
2018-Feb-20 22:33 155 8.3
2018-Feb-20 22:23 208 0 gusting 1 8.3
2018-Feb-20 22:13 225 8.3
2018-Feb-20 22:03 186 8.9
2018-Feb-20 21:53 261 8.3
2018-Feb-20 21:43 073 8.3
2018-Feb-20 21:33 028 8.9
2018-Feb-20 21:23 270 0 gusting 1 8.9
2018-Feb-20 21:13 317 9.4
2018-Feb-20 21:03 225 9.4
2018-Feb-20 20:53 261 9.4
2018-Feb-20 20:43 225 1 gusting 4 9.4
2018-Feb-20 20:33 225 0 gusting 4 8.9
2018-Feb-20 20:23 235 0 gusting 4 8.9
2018-Feb-20 20:13 205 1 gusting 4 9.4
2018-Feb-20 20:03 225 1 gusting 5 9.4
2018-Feb-20 19:53 210 2 gusting 6 8.9
2018-Feb-20 19:43 170 2 gusting 8 8.9
2018-Feb-20 19:33 195 2 gusting 6 8.3
2018-Feb-20 19:23 229 2 gusting 7 8.9
2018-Feb-20 19:13 142 3 gusting 8 8.3
2018-Feb-20 19:03 149 1 gusting 6 8.3
2018-Feb-20 18:53 203 2 gusting 6 8.3
2018-Feb-20 18:43 135 2 gusting 6 8.9
2018-Feb-20 18:33 225 4 gusting 7 9.4
2018-Feb-20 18:23 225 0 gusting 1 10.0
2018-Feb-20 18:13 237 10.0
2018-Feb-20 18:03 107 0 gusting 2 10.6
2018-Feb-20 17:53 181 0 gusting 4 10.6
2018-Feb-20 17:43 263 1 gusting 6 11.1
2018-Feb-20 17:33 278 2 gusting 6 11.1
2018-Feb-20 17:23 225 0 gusting 1 11.1
2018-Feb-20 17:13 176 0 gusting 1 10.6
2018-Feb-20 17:03 197 0 gusting 1 11.1
2018-Feb-20 16:53 125 1 gusting 2 11.1
2018-Feb-20 16:43 253 0 gusting 1 11.1
2018-Feb-20 16:33 094 0 gusting 1 11.7
2018-Feb-20 16:23 261 12.2
2018-Feb-20 16:13 192 0 gusting 4 12.2
2018-Feb-20 16:03 225 0 gusting 1 12.2
2018-Feb-20 15:53 126 12.8
2018-Feb-20 15:43 315 0 gusting 0 12.8
2018-Feb-20 15:33 254 12.8
2018-Feb-20 15:23 12.8
2018-Feb-20 15:13 180 0 gusting 2 13.3
2018-Feb-20 15:03 270 13.3
2018-Feb-20 14:53 194 0 gusting 4 13.3
2018-Feb-20 14:43 225 0 gusting 5 13.3
2018-Feb-20 14:33 225 13.3
2018-Feb-20 14:23 225 2 gusting 5 13.9
2018-Feb-20 14:13 204 1 gusting 6 13.9
2018-Feb-20 14:03 225 2 gusting 6 13.9
2018-Feb-20 13:53 274 2 gusting 6 13.9
2018-Feb-20 13:43 204 2 gusting 6 13.3
2018-Feb-20 13:33 311 1 gusting 6 13.9
2018-Feb-20 13:23 315 1 gusting 6 13.9
2018-Feb-20 13:13 256 1 gusting 7 13.9
2018-Feb-20 13:03 225 2 gusting 7 13.9
2018-Feb-20 12:53 225 2 gusting 6 13.9
2018-Feb-20 12:43 231 1 gusting 6 13.9
2018-Feb-20 12:33 228 1 gusting 5 13.9
2018-Feb-20 12:23 280 2 gusting 5 13.9
2018-Feb-20 12:13 342 1 gusting 2 13.3
2018-Feb-20 12:03 220 0 gusting 2 13.3
2018-Feb-20 11:53 228 0 gusting 2 13.3
2018-Feb-20 11:43 222 12.8
2018-Feb-20 11:33 179 0 gusting 1 12.8
2018-Feb-20 11:23 303 12.2
2018-Feb-20 11:13 045 0 gusting 4 12.2
2018-Feb-20 11:03 135 0 gusting 2 11.7
2018-Feb-20 10:53 282 11.7
2018-Feb-20 10:43 135 1 gusting 2 11.7
2018-Feb-20 10:33 342 0 gusting 2 11.7
2018-Feb-20 10:23 180 11.1
2018-Feb-20 10:13 11.1
2018-Feb-20 10:03 090 0 gusting 2 10.6
2018-Feb-20 09:53 180 0 gusting 2 10.6
2018-Feb-20 09:43 251 0 gusting 1 10.0
2018-Feb-20 09:33 225 0 gusting 2 9.4
2018-Feb-20 09:23 225 0 gusting 2 9.4
2018-Feb-20 09:13 225 9.4
2018-Feb-20 09:03 225 9.4
2018-Feb-20 08:53 209 9.4
2018-Feb-20 08:43 180 8.9
2018-Feb-20 08:33 210 8.9
2018-Feb-20 08:23 045 8.3
2018-Feb-20 08:13 135 8.3
2018-Feb-20 08:03 225 8.3
2018-Feb-20 07:53 056 7.8
2018-Feb-20 07:43 253 7.8
2018-Feb-20 07:33 136 7.8
2018-Feb-20 07:23 226 7.8
2018-Feb-20 07:13 180 0 gusting 0 7.8
2018-Feb-20 07:03 190 0 gusting 0 7.2
2018-Feb-20 06:53 315 7.2
2018-Feb-20 06:43 315 7.2
2018-Feb-20 06:33 095 0 gusting 1 7.2
2018-Feb-20 06:23 081 0 gusting 1 7.2
2018-Feb-20 06:13 007 0 gusting 1 7.2
2018-Feb-20 06:03 315 7.2
2018-Feb-20 05:53 223 7.2
2018-Feb-20 05:43 090 1 gusting 2 6.7
2018-Feb-20 05:33 158 1 gusting 2 6.1
2018-Feb-20 05:23 078 0 gusting 2 6.1
2018-Feb-20 05:13 135 1 gusting 2 6.1
2018-Feb-20 05:03 135 1 gusting 2 6.1
2018-Feb-20 04:53 135 0 gusting 0 6.7
2018-Feb-20 04:43 135 0 gusting 2 6.7
2018-Feb-20 04:33 102 0 gusting 1 7.8
2018-Feb-20 04:23 236 8.3
2018-Feb-20 04:13 7.8
2018-Feb-20 04:03 180 7.8
2018-Feb-20 03:53 090 7.8
2018-Feb-20 03:43 113 1 gusting 2 8.3
2018-Feb-20 03:33 225 8.3
2018-Feb-20 03:23 180 1 gusting 2 8.3
2018-Feb-20 03:13 103 1 gusting 4 7.8
2018-Feb-20 03:03 135 0 gusting 1 8.3
2018-Feb-20 02:53 180 8.3
2018-Feb-20 02:43 180 8.3
2018-Feb-20 02:33 133 0 gusting 1 8.9
2018-Feb-20 02:23 225 8.9
2018-Feb-20 02:13 263 8.9
2018-Feb-20 02:03 263 1 gusting 4 8.9
2018-Feb-20 01:53 225 8.9
2018-Feb-20 01:43 252 1 gusting 6 8.9
2018-Feb-20 01:33 171 0 gusting 4 9.4
2018-Feb-20 01:23 230 1 gusting 5 9.4
2018-Feb-20 01:13 297 0 gusting 4 9.4
2018-Feb-20 01:03 225 0 gusting 2 9.4
2018-Feb-20 00:53 146 1 gusting 4 9.4
2018-Feb-20 00:43 225 0 gusting 2 9.4
2018-Feb-20 00:33 254 9.4
2018-Feb-20 00:23 159 9.4
2018-Feb-20 00:13 203 1 gusting 5 9.4
2018-Feb-20 00:03 212 9.4
2018-Feb-19 23:53 180 0 gusting 1 9.4
2018-Feb-19 23:43 225 10.0
2018-Feb-19 23:33 193 1 gusting 4 10.0
2018-Feb-19 23:23 270 0 gusting 1 10.0
2018-Feb-19 23:13 225 10.0
2018-Feb-19 23:03 135 0 gusting 2 10.0
2018-Feb-19 22:53 066 1 gusting 4 10.0
2018-Feb-19 22:43 090 1 gusting 2 10.0
2018-Feb-19 22:33 090 0 gusting 2 10.0
2018-Feb-19 22:23 10.0
2018-Feb-19 22:13 10.0
2018-Feb-19 22:03 270 10.0
2018-Feb-19 21:53 225 10.0
2018-Feb-19 21:43 225 10.0
2018-Feb-19 21:33 225 0 gusting 1 10.0
2018-Feb-19 21:23 213 0 gusting 1 9.4
2018-Feb-19 21:13 121 10.0
2018-Feb-19 21:03 225 10.6
2018-Feb-19 20:53 225 10.6
2018-Feb-19 20:43 090 0 gusting 2 10.6
2018-Feb-19 20:33 103 0 gusting 2 10.6
2018-Feb-19 20:23 315 10.6
2018-Feb-19 20:13 045 0 gusting 2 10.0
2018-Feb-19 20:03 129 0 gusting 2 10.0
2018-Feb-19 19:53 180 9.4
2018-Feb-19 19:43 135 0 gusting 2 10.0
2018-Feb-19 19:33 225 10.6
2018-Feb-19 19:23 090 0 gusting 0 10.6
2018-Feb-19 19:13 090 0 gusting 1 10.6
2018-Feb-19 19:03 225 10.6
2018-Feb-19 18:53 180 0 gusting 1 10.6
2018-Feb-19 18:43 090 0 gusting 1 10.6
2018-Feb-19 18:33 156 10.6
2018-Feb-19 18:23 239 10.6
2018-Feb-19 18:13 180 10.6
2018-Feb-19 18:03 180 11.1
2018-Feb-19 17:53 157 10.6
2018-Feb-19 17:43 225 11.1
2018-Feb-19 17:33 135 0 gusting 1 11.1
2018-Feb-19 17:23 213 11.1
2018-Feb-19 17:13 348 0 gusting 2 11.7
2018-Feb-19 17:03 189 0 gusting 1 11.7